Content
SEND FEEDBACK

Daily
Averages
Monthly
Summary
United States of America

NEW YORK, NEW YORK


Home > North America > United States > New York
Elevation: 131 feet     Latitude: 40 47N     Longitude: 073 58W

WEATHER
 
SELECT A DAY
Number of Records: 148,168;   Date Range: 11/1/95 - 8/12/14
 
SHARE

PRINT THIS DATA

[ ← Previous Day ]
WEATHER ALMANAC - APRIL 19, 2014
[ Next Day → ]
[ °C ]   °F
Weather ElementAverageHighLow
Temperature55.5 °F66.9 °F (3:51 pm)42.1 °F (1:51 am)
Dewpoint26.4 °F35.1 °F (8:51 am)17.1 °F (11:51 am)
Humidity38.3 %71 % (4:51 am)18 % (11:51 am)
Barometer30.26 in30.35 in (11:51 pm)30.22 in (3:51 pm)
Wind Speed5.3 mph11.5 mph (10:51 pm)
Wind Gust18.4 mph (10:51 pm)
Weather ElementAverage
Visibility10 mi
Wind DirectionENE (61.7 °)

Weather ElementTotal
Precipitation---
Heating Degree Days10.5 (Base 65)
Growing Degree Days4.5 (Base 50)
Averaged from 23 records on April 19, 2014
WEATHER CONDITIONS BREAKOUT
WIND DIRECTION BREAKOUT
WEATHER BY HOUR - APRIL 19, 2014
[ °C ]   °F
Local TimeTemperatureDewpointHumidityBarometerVisibilityWind DirectionWind SpeedGust SpeedPrecipitationEventsConditions
1:51 AM42.1 °F32.0 °F67 %30.26 in10.0 miCalmClear
2:51 AM42.1 °F32.0 °F67 %30.24 in10.0 miVariable4.6 mphClear
3:51 AM43.0 °F33.1 °F68 %30.23 in10.0 miCalmClear
4:51 AM43.0 °F34.0 °F71 %30.23 in10.0 miWest (270°)3.5 mphClear
5:51 AM44.1 °F34.0 °F68 %30.23 in10.0 miWSW (250°)3.5 mphClear
6:51 AM44.1 °F34.0 °F68 %30.25 in10.0 miWNW (290°)4.6 mphClear
7:51 AM46.0 °F34.0 °F63 %30.26 in10.0 miCalmClear
8:51 AM48.9 °F35.1 °F59 %30.27 in10.0 miCalmClear
9:51 AM55.0 °F32.0 °F42 %30.27 in10.0 miVariable3.5 mphClear
10:51 AM59.0 °F25.0 °F27 %30.27 in10.0 miVariable6.9 mphClear
11:51 AM62.1 °F17.1 °F18 %30.26 in10.0 miVariable6.9 mph17.3 mphClear
12:51 PM63.0 °F21.0 °F20 %30.25 in10.0 miWNW (300°)8.1 mphClear
1:51 PM64.0 °F25.0 °F23 %30.23 in10.0 miVariable3.5 mphClear
2:51 PM66.0 °F25.0 °F21 %30.23 in10.0 miENE (60°)9.2 mphClear
3:51 PM66.9 °F21.9 °F18 %30.22 in10.0 miNNE (30°)9.2 mphClear
4:51 PM66.9 °F21.9 °F18 %30.23 in10.0 miNE (50°)9.2 mphClear
5:51 PM66.0 °F21.9 °F19 %30.24 in10.0 miVariable4.6 mphClear
6:51 PM64.0 °F19.9 °F18 %30.26 in10.0 miNE (40°)8.1 mphClear
7:51 PM62.1 °F19.9 °F20 %30.26 in10.0 miNE (40°)3.5 mphClear
8:51 PM60.1 °F21.0 °F22 %30.29 in10.0 miVariable4.6 mphClear
9:51 PM57.9 °F21.0 °F24 %30.33 in10.0 miNE (50°)10.4 mphClear
10:51 PM55.9 °F21.9 °F27 %30.34 in10.0 miNorth (10°)11.5 mph18.4 mphClear
11:51 PM54.0 °F25.0 °F33 %30.35 in10.0 miNNE (30°)6.9 mphClear
Hourly data recorded from KNYC, located miles away from New York, New York







STORIES FROM OUR PARTNERS